Location: *
(34.6903°N, 135.5184°E)
Time: 08:04:38
(UTC+00:00)

Shenzhou-11 Module - Pass Details

Date: 22 September 2019
Orbit: 315 x 326 km, 42.8° (Epoch: 13 October)

Event Time Altitude Azimuth Distance (km) Brightness Sun altitude
Exits shadow 20:18:20 - 293° (WNW) 1,449 4.4 -6.5°
Reaches altitude 10° 20:19:04 10° 302° (WNW) 1,214 4.1 -6.4°
Maximum altitude 20:21:04 18° 349° (N) 866 3.8 -6.0°
Drops below altitude 10° 20:23:04 10° 36° (NE) 1,220 5.2 -5.6°
Sets 20:25:26 0° 57° (ENE) 2,055 7.0 -5.1°
